Location: Mentone
(34.5413°N, 85.5351°W)
Time: 11:21:30
(UTC-06:00)

Cosmos 2150 Rocket - Visible Passes

Search period start: 26 November 2014 00:00
Search period end: 06 December 2014 00:00
Orbit: 750 x 809 km, 74.0° (Epoch: 25 November)

Date Brightness Start Highest point End Pass type
(mag) Time Alt. Az. Time Alt. Az. Time Alt. Az.
02 Dec 6.1 17:34:17 10° NNE 17:34:21 10° NNE 17:34:21 10° NNE visible
02 Dec 6.3 19:14:03 10° NNW 19:14:56 15° NNW 19:14:56 15° NNW visible
03 Dec 5.1 18:40:29 10° NNW 18:43:22 32° N 18:43:22 32° N visible
04 Dec 4.4 18:07:08 10° N 18:12:16 42° ENE 18:12:47 41° E visible
04 Dec 6.4 19:50:18 10° NW 19:53:32 20° W 19:53:32 20° W visible
05 Dec 5.0 17:34:00 10° N 17:38:32 26° ENE 17:43:03 10° ESE visible
05 Dec 5.6 19:15:59 10° NW 19:20:49 33° W 19:25:39 10° SSW visible
